User: anonymous   Login
Location: Iesi
(43.5167°N, 13.2333°E)
Time: 07:14:47
(UTC+00:00)
Language:

BREEZE-M DEB (TANK) - Orbit

View from above orbital plane
View from above orbital plane
View from above satellite
View from above satellite

Ground track
Ground track

The orbit data is extracted from the following two-line orbital elements,

1 39010U 12065C   20299.63167796 +.00002189 +00000-0 +48779-3 0  9992
2 39010 049.6812 050.2027 4658882 210.8150 110.8775 06.16420284175767
Epoch (UTC): 25 October 2020 15:09:36
Eccentricity: 0.4658882
inclination: 49.6812°
perigee height: 333 km
apogee height: 12040 km
right ascension of ascending node: 50.2027°
argument of perigee: 210.8150°
revolutions per day: 6.16420284
mean anomaly at epoch: 110.8775°
orbit number at epoch: 17576

The dashed part of the orbit path shows where the satellite is in the earth's shadow,  

DLR